Tsikada Rocket - Orbit

View from above orbital plane
View from above orbital plane
View from above satellite
View from above satellite

Ground track
Ground track

The orbit data is extracted from the following two-line orbital elements,

1 23466U 95002D   13142.86143767  .00000022  00000-0  71746-5 0  5945
2 23466 082.9251 288.1983 0034767 021.9431 128.3683 13.74249822919132
Epoch (UTC): 22 May 2013 20:40:28
Eccentricity: 0.0034767
inclination: 82.9251°
perigee height: 959 km
apogee height: 1010 km
right ascension of ascending node: 288.1983°
argument of perigee: 21.9431°
revolutions per day: 13.74249822
mean anomaly at epoch: 128.3683°
orbit number at epoch: 91913

The dashed part of the orbit path shows where the satellite is in the earth's shadow,  

Developed and maintained by Chris Peat, Heavens-Above GmbH. Please read the updated FAQ before sending e-mail. Imprint. DLR